Flag for USA

Past Weather in Wilmington, Delaware, USA — Yesterday and Last 2 Weeks

Now
48 °F

Overcast.


Feels Like: 43 °F
Forecast: 50 / 47 °F
Wind: 10 mph from North

Location: New Castle County Airport
Current Time: Oct 25, 2020 at 3:21:27 am
Latest Report: Oct 25, 2020 at 2:51 am
Visibility: 10 mi
Pressure30.14 "Hg
Humidity: 63%
Dew Point: 36 °F
Location of WilmingtonLocation

Past Weather in Wilmington — Graph

°F

Wilmington Temperature Yesterday

Maximum temperature yesterday: 73 °F (at 1:51 pm)
Minimum temperature yesterday: 51 °F (at 11:51 pm)
Average temperature yesterday: 63 °F

High & Low Weather Summary for the Past Weeks

 TemperatureHumidityPressure
High77 °F (Oct 22, 3:51 pm)100% (Oct 21, 2:01 am)30.47 "Hg (Oct 21, 2:01 am)
Low37 °F (Oct 18, 3:51 am)30% (Oct 17, 2:51 pm)29.88 "Hg (Oct 13, 3:51 am)
Average60 °F84%30.14 "Hg
* Reported Oct 10 1:51 am — Oct 25 1:51 am, Wilmington. Weather by CustomWeather, © 2020

Note: Actual official high and low records may vary slightly from our data, if they occured in-between our weather recording intervals... More about our weather records

Wilmington Weather History for the Previous 24 Hours

Scroll right to see more
 ConditionsComfort  
Time TempWeatherWind HumidityBarometerVisibility
1:51 am
Sun, Oct 25
49 °FPassing clouds.9 mph61%30.13 "Hg10 mi
12:51 am50 °FOvercast.13 mph61%30.12 "Hg10 mi
11:51 pm
Sat, Oct 24
51 °FPassing clouds.7 mph63%30.11 "Hg10 mi
10:51 pm53 °FPassing clouds.10 mph61%30.09 "Hg10 mi
9:51 pm55 °FOvercast.10 mph62%30.07 "Hg10 mi
8:51 pm57 °FOvercast.12 mph64%30.04 "Hg10 mi
7:51 pm59 °FPassing clouds.10 mph69%30.03 "Hg10 mi
6:51 pm61 °FPassing clouds.12 mph70%30.01 "Hg10 mi
5:51 pm65 °FPartly sunny.12 mph70%29.98 "Hg10 mi
4:51 pm67 °FPassing clouds.13 mph73%29.94 "Hg10 mi
3:51 pm69 °FMore clouds than sun.13 mph70%29.93 "Hg10 mi
3:31 pm70 °FMostly cloudy.13 mph71%29.93 "Hg10 mi
2:51 pm73 °FScattered clouds.10 mph66%29.91 "Hg10 mi
1:51 pm73 °FPartly sunny.12 mph64%29.91 "Hg10 mi
12:51 pm66 °FSunny.7 mph84%29.93 "Hg10 mi
11:51 am67 °FOvercast.7 mph81%29.94 "Hg10 mi
11:02 am66 °FScattered clouds.8 mph87%29.95 "Hg10 mi
10:51 am66 °FPartly sunny.9 mph87%29.95 "Hg10 mi
10:15 am65 °FOvercast.7 mph91%29.96 "Hg10 mi
9:51 am64 °FLow clouds.8 mph90%29.97 "Hg10 mi
8:51 am62 °FFog.5 mph93%29.97 "Hg6 mi
7:51 am61 °FLow clouds.7 mph93%29.96 "Hg7 mi
6:51 am61 °FLow clouds.8 mph90%29.97 "Hg10 mi
5:51 am61 °FLow clouds.7 mph90%29.98 "Hg10 mi
4:51 am61 °FLow clouds.6 mph93%29.98 "Hg10 mi
4:04 am61 °FMostly cloudy.7 mph93%29.99 "Hg10 mi
3:36 am62 °FOvercast.7 mph90%30.00 "Hg10 mi
Weather by CustomWeather, © 2020

See weather overview